www.pogodaiklimat.ru

Погода и климат >> Архив погоды >> Индонезия >> Tanah Merah


ПОГОДА в Tanah Merah

  • Прогноз погоды в Tanah Merah
  • Монитор погоды в Tanah Merah
  • Климат города

АРХИВ ПОГОДЫ в Tanah Merah

Время (UTC), дата Ветер
(напр.,м/с)
 
Видим.   Явления Облачность Т
(С)
Тd
(С)
f
(%)
Тe
(С)
Тes
(С)
Комфортность P
(гПа)
Po
(гПа)
Тmin
(С)
Tmax
(С)
R
(мм)
R24
(мм)
S
(см)
03 18.04 штиль 0 6000 м 9/8 240 м
[Sc Ac As Ci sp]
+27.8 +23.6 78 +38 +42 очень
душно
1010.2 1007.0
06 18.04 З 3 8000 м 9/8 300 м
[Sc Ac trans Ci sp]
+28.7 +24.7 79 +41 +42 опасность
перегрева
1007.4 1004.3
09 18.04 З 2 8000 м 9/8 270 м
[Cb cap Ac trans Ci sp]
+27.0 +25.2 90 +39 +39 очень
душно
1008.1 1004.9
12 18.04 штиль 0 8000 м зарница 9/8 270 м
[Cb cap Ac trans Ci sp]
+26.0 +25.0 94 +37 +37 очень
душно
1011.6 1008.4 +29.1
15 18.04 штиль 0 8000 м зарница 9/8 270 м
[Cb cap Ac trans Ci sp]
+25.3 +24.6 96 +36 +36 очень
душно
1010.7 1007.5
18 18.04 штиль 0 6000 м 8/6 300 м
[Sc Ac lent Ci sp]
+24.7 +24.2 97 +34 +34 очень
душно
1009.8 1006.6
21 18.04 штиль 0 100 м туман 8/5 300 м
[Sc Ac lent Ci sp]
+24.4 +24.1 98 +34 +34 очень
душно
1010.7 1007.5
00 19.04 З 1 8000 м {туман} 9/8 270 м
[Sc Ac lent Ci sp]
+27.9 +24.9 84 +40 +42 очень
душно
1011.0 1007.8 +24.3 0.2
03 19.04 З 2 8000 м 9/8 <50 м
[Cu Sc Ac trans Ci sp]
+31.6 +24.5 66 +44 +47 опасность
перегрева
1008.9 1005.8
06 19.04 штиль 0 8000 м 9/8 270 м
[Cu Sc Ac trans Ci sp]
+33.7 +23.7 56 +45 +47 опасность
перегрева
1006.3 1003.2
09 19.04 штиль 0 10 км 6/5 300 м
[Cb cap Ac trans Ci fib]
+30.1 +26.1 79 +45 +45 опасность
перегрева
1007.8 1004.7
12 19.04 Ю 1 10 км зарница 8/6 270 м
[Cb cap Ac lent Ci sp]
+27.3 +24.7 86 +39 +39 очень
душно
1009.8 1006.6 +34.0
15 19.04 штиль 0 8000 м зарница 8/6 270 м
[Cb cap Ac lent Ci sp]
+25.6 +24.4 93 +36 +36 очень
душно
1009.3 1006.1
18 19.04 штиль 0 8000 м зарница 9/8 270 м
[Cb cap Ac As Ci sp]
+25.1 +24.2 95 +35 +35 очень
душно
1008.2 1005.0
21 19.04 штиль 0 6000 м 8/6 270 м
[Sc Ac lent Ci sp]
+25.0 +24.5 97 +35 +35 очень
душно
1009.7 1006.5
00 20.04 штиль 0 5000 м 9/6 240 м
[Sc Ac lent Ci sp]
+27.8 +25.0 85 +40 +44 очень
душно
1010.7 1007.5 +24.7
03 20.04 З 2 10 км 6/5 270 м
[Cu Sc Ac trans Ci sp]
+31.7 +24.8 67 +45 +55 опасность
перегрева
1007.9 1004.8
06 20.04 З 2 10 км 8/5 270 м
[Cu Sc Ac trans Ci sp]
+33.7 +24.9 60 +47 +50 опасность
перегрева
1005.7 1002.6
09 20.04 З 2 8000 м зарница 9/8 270 м
[Cb cap Ac lent Ci sp]
+28.7 +25.5 83 +42 +42 опасность
перегрева
1007.8 1004.7
12 20.04 штиль 0 4000 м в посл. час дождь 10/8 240 м
[Cb cap Ac As Ci sp]
+26.5 +24.9 91 +38 +38 очень
душно
1010.8 1007.6 +33.9 0.0
15 20.04 З 1 4000 м зарница 9/8 240 м
[Cb cap Ac As Ci sp]
+25.9 +24.5 92 +36 +36 очень
душно
1010.0 1006.8
18 20.04 С 2 100 м сильный дождь 10/9 180 м
[Sc]
+24.7 +24.2 97 +34 +34 очень
душно
1009.6 1006.4 21
00 21.04 СВ 2 5000 м {дождь} 9/8 210 м
[Sc Ac As Ci sp]
+25.4 +24.4 94 +35 +37 очень
душно
1010.9 1007.7 +24.1 0.0
03 21.04 СЗ 2 7000 м 9/8 270 м
[Sc Ac und Ci sp]
+28.1 +24.5 81 +40 +43 очень
душно
1008.8 1005.6
06 21.04 ЮВ 2 8000 м 9/8 270 м
[Cu Sc Ac As Ci sp]
+30.2 +24.6 72 +43 +44 опасность
перегрева
1006.7 1003.6
09 21.04 штиль 0 8000 м зарница 9/8 270 м
[Cb cap Ac lent Ci sp]
+27.6 +25.8 90 +41 +41 опасность
перегрева
1007.8 1004.6
15 21.04 ЮВ 1 6000 м зарница 10/8 240 м
[Cb cap Ac lent Ci sp]
+25.5 +24.8 96 +36 +36 очень
душно
1009.2 1006.0
18 21.04 штиль 0 6000 м 10/8 240 м
[Sc Ac lent Ci sp]
+25.0 +24.3 96 +35 +35 очень
душно
1008.6 1005.4
21 21.04 штиль 0 6000 м 9/8 240 м
[Sc Ac lent Ci sp]
+25.0 +24.5 97 +35 +35 очень
душно
1009.8 1006.6
03 22.04 ЮВ 3 10 км 8/8 270 м
[Cu Sc Ac trans Ci fib]
+29.9 +24.5 73 +42 +46 опасность
перегрева
1008.3 1005.2
06 22.04 ЮВ 3 10 км {дождь} 6/5 300 м
[Cb cap Ac trans Ci fib]
+31.3 +24.4 67 +44 +47 опасность
перегрева
1005.6 1002.5 0.4
09 22.04 В 1 6000 м зарница 9/8 270 м
[Cb cap Ac lent Ci sp]
+29.4 +25.4 79 +43 +43 опасность
перегрева
1007.2 1004.1
12 22.04 штиль 0 8000 м зарница 9/8 270 м
[Cb cap Ac lent Ci sp]
+27.0 +25.0 89 +39 +39 очень
душно
1009.6 1006.4 +31.9
15 22.04 штиль 0 8000 м 9/8 300 м
[Sc Ac lent Ci sp]
+26.5 +25.1 92 +38 +38 очень
душно
1009.5 1006.3
18 22.04 штиль 0 8000 м 8/6 300 м
[Sc Ac lent Ci sp]
+25.6 +24.6 94 +36 +36 очень
душно
1008.1 1004.9
21 22.04 штиль 0 8000 м 9/8 240 м
[Sc Ac lent Ci sp]
+25.4 +24.7 96 +36 +36 очень
душно
1009.7 1006.5
00 23.04 В 3 8000 м 9/8 240 м
[Sc Ac lent Ci sp]
+28.2 +25.0 83 +41 +42 опасность
перегрева
1010.6 1007.4 +25.3 0.4
03 23.04 В 3 8000 м 9/8 <50 м
[Cu Sc Ac lent Ci sp]
+31.8 +24.4 65 +44 +47 опасность
перегрева
1007.9 1004.8
06 23.04 СВ 4 8000 м 9/8 270 м
[Cu Sc Ac lent Ci sp]
+32.3 +25.1 66 +46 +47 опасность
перегрева
1005.2 1002.1
09 23.04 С 3 4000 м 9/8 240 м
[Cb cap Ac lent Ci sp]
+27.8 +24.2 81 +39 +39 очень
душно
1007.8 1004.6
12 23.04 СВ 2 500 м дождь 10/8 240 м
[Cb cap Ac lent Ci sp]
+25.7 +24.7 94 +36 +36 очень
душно
1010.0 1006.8 +33.1 8
15 23.04 СВ 2 5000 м {дождь} 10/8 240 м
[Sc Ac As Ci sp]
+24.7 +24.0 96 +34 +34 очень
душно
1009.4 1006.2 0.2
18 23.04 штиль 0 5000 м {дождь} 10/8 240 м
[Sc Ac As Ci sp]
+24.6 +24.1 97 +34 +34 очень
душно
1008.4 1005.2 0.2
21 23.04 штиль 0 8000 м {туман} 9/8 240 м
[Sc Ac lent Ci sp]
+23.9 +23.6 98 +32 +32 очень
душно
1010.0 1006.8
00 24.04 В 2 7000 м 9/8 240 м
[Sc Ac lent Ci sp]
+26.6 +24.1 86 +37 +39 очень
душно
1011.0 1007.8 +23.8 8
03 24.04 ЮВ 3 9000 м 8/6 270 м
[Cu Sc Ac lent Ci sp]
+30.4 +23.8 68 +42 +47 опасность
перегрева
1007.8 1004.7
06 24.04 штиль 0 10 км 6/5 300 м
[Cu Sc Ac lent Ci sp]
+30.6 +25.0 72 +44 +49 опасность
перегрева
1005.0 1001.9
09 24.04 штиль 0 10 км зарница 5/4 300 м
[Cb cap Ac lent Ci fib]
+28.9 +24.7 78 +41 +41 опасность
перегрева
1006.9 1003.8
12 24.04 штиль 0 8000 м 9/8 270 м
[Sc Ac und Ci sp]
+27.6 +25.2 87 +40 +40 очень
душно
1009.3 1006.1 +32.5
15 24.04 СВ 2 6000 м в посл. час дождь 10/8 240 м
[Sc Ac As Ci sp]
+26.0 +25.1 95 +37 +37 очень
душно
1009.1 1005.9 0.6

 

Местоположение метеостанции Tanah Merah (Индонезия): широта -6.10 долгота 140.30 высота над уровнем моря 16 м.

В архиве по умолчанию представлена погода в Tanah Merah за последнюю неделю. Архивные данные за месяц целиком и за предыдущие месяцы, начиная с января 2011 года, Вы можете получить, выбрав интересующий диапазон дат из раскрывающегося списка и нажав кнопку "Ввод!".


*Определитесь, кто Вы:
робот инопланетянин человек

Внимание! Время в таблицах - всемирное. Для получения местного времени необходимо прибавить поправку, которая в Tanah Merah равна 9 ч.

Смотрите также архив погоды в соседних городах и на ближайших метеорологических станциях:

Погода в Merauke (Индонезия) (264 км)
Погода в Wamena (Индонезия) (271 км)
Погода в Kokonao (Индонезия) (338 км)
Погода в Sentani Airport (Индонезия) (392 км)
Погода в Jayapura (Индонезия) (393 км)
Погода в Enarotali (Индонезия) (498 км)
Погода в Sarmi (Индонезия) (507 км)
Погода в Coconut Island (Квинсленд, Австралия) (535 км)
Погода в Horn Island (Квинсленд, Австралия) (544 км)
Погода в Nabire (Индонезия) (615 км)

Пояснения к столбцам:

Ветер - указаны скорость ветра в м/с - средняя за 10 мин, порывы в срок и между сроками (в фигурных скобках) и направление, откуда дует ветер: С - северный, СВ - северо-восточный, В - восточный, ЮВ - юго-восточный, Ю - южный, ЮЗ - юго-западный, З - западный, СЗ - северо-западный.
Видимость - горизонтальная дальность видимости в метрах или километрах. При видимости от 1 до 10 км при отсутствии осадков обычно наблюдается дымка, при ухудшении видимости до 1 км и менее - туман. В сухую погоду видимость может ухудшаться дымом, пылью или мглою.
Явления - указаны атмосферные явления, наблюдавшиеся в срок или в последний час перед сроком; фигурными скобками обозначены явления, наблюдавшиеся между сроками (за 1-3 часа до срока); квадратными скобками обозначены град или гололедные отложения с указанием их диаметра в мм.
Облачность - указаны через наклонную черту общая и нижняя облачность в баллах и высота нижней границы облаков в метрах; квадратными скобками обозначены формы облаков: Ci - перистые, Cs - перисто-слоистые, Cc - перисто-кучевые, Ac - высококучевые, As - высокослоистые, Sc - слоисто-кучевые, Ns - слоисто-дождевые, Cu - кучевые, Cb - кучево-дождевые. Подробнее классификацию облаков см. в Атласе облаков (PDF).
T - Температура воздуха - температура, измеренная на высоте 2 м над землей.
Td - Температура точки росы - температура, при понижении до которой содержащийся в воздухе водяной пар достигнет насыщения.
f - Относительная влажность воздуха - влажноcть воздуха, измеренная на высоте 2 м над землей.
Te - Эффективная температура - температура, которую ощущает одетый по сезону человек в тени. Характеристика душности погоды. При расчете учитывается влияние влажности воздуха и скорости ветра на теплоощущения человека.
Tes - Эффективная температура на солнце - температура, которую ощущает человек, с поправкой на солнечный нагрев. Характеристика знойности погоды. Зависит от высоты солнца над горизонтом, облачности и скорости ветра. Ночью, в пасмурную погоду, а также при ветре 12 м/с и более поправка равна нулю.
P - Атмосферное давление - приведенное к уровню моря атмосферное давление.
Po - Атмосферное давление - измеренное на уровне метеостанции атмосферное давление.
Tmin - Минимальная температура - минимум температуры воздуха на высоте 2 м над землей.
Tmax - Максимальная температура - максимум температуры воздуха на высоте 2 м над землей.
R - Количество осадков - Количество выпавших осадков за период времени, мм. При наведении курсора мыши на число - период времени, за который выпало указанное количество осадков.
R24 - Количество осадков - Количество выпавших осадков за 24 часа, мм.
S - Снежный покров - Высота снежного покрова, см. При наведении курсора мыши на число - состояние снежного покрова и степень покрытия местности в баллах.